sat.trackr.live / text

‹ back to catalog

STARLINK-35151

NORAD 65624 · 2025-210C

PAYLOAD ACTIVE UNKNOWN

§ Identity

Operator
Country
US
Launch date
2025-09-18
Launch site
AFETR
Launch vehicle
Mass (kg)
RCS (m²)

Purposes: comms

External: N2YO · Heavens-Above · Gunter

§ Orbital elements

Epoch: 2026-05-25T04:03:15.139008Z

Period
93.37 min
Inclination
53.1613°
Eccentricity
0.0001263
Mean motion
15.42180993 rev/d
Perigee alt
438.8 km
Apogee alt
440.5 km
Semi-major
6,817.8 km
B*
6.4397e-4
RAAN
309.4762°
Arg perigee
97.3183°
Mean anomaly
262.7966°
Rev number
3,939

§ Raw data

STARLINK-351511 65624U 25210C   26145.16892522  .00027732  00000+0  64397-3 0  99982 65624  53.1613 309.4762 0001263  97.3183 262.7966 15.42180993 39392

JSON: /api/v1/satellites/65624 · /tle

For live sub-satellite position, see the globe view (requires WebGL).

§ Visibility from observer

Set your observer location to see the next 7 days of passes ≥ 10°. The values pass through the URL so the page stays shareable.

No JS? Fill the form by hand. The geolocation button needs JavaScript.